| time (UTC) | temp F | wind direction | speed knots | gust knots | rain 1hr in | rain 24hr in | rain mn in | humidity % | barometer mb |
| 20260905123333 | 72 | 237 | 0.9 | 2.6 | 0.00 | 0.00 | 0.00 | 96 | 1011.0 |
| 20260905122339 | 72 | 181 | 0.9 | 1.7 | 0.00 | 0.00 | 0.00 | 96 | 1011.0 |
| 20260905121337 | 71 | 202 | 0.0 | 2.6 | 0.00 | 0.00 | 0.00 | 96 | 1010.9 |
| 20260905120337 | 71 | 212 | 0.9 | 3.5 | 0.00 | 0.00 | 0.00 | 96 | 1011.0 |
| 20260905115341 | 71 | 156 | 0.9 | 1.7 | 0.00 | 0.00 | 0.00 | 96 | 1010.9 |
| 20260905114313 | 71 | 156 | 0.0 | 0.9 | 0.00 | 0.00 | 0.00 | 96 | 1010.8 |
| 20260905113336 | 71 | 156 | 0.0 | 0.9 | 0.00 | 0.00 | 0.00 | 96 | 1010.9 |
| 20260905112357 | 71 | 156 | 0.0 | 0.0 | 0.00 | 0.00 | 0.00 | 96 | 1010.8 |
| 20260905111315 | 71 | 156 | 0.0 | 1.7 | 0.00 | 0.00 | 0.00 | 96 | 1010.7 |
| 20260905110327 | 71 | 156 | 0.9 | 1.7 | 0.00 | 0.00 | 0.00 | 96 | 1010.6 |
| 20260905105336 | 71 | 156 | 0.0 | 0.9 | 0.00 | 0.00 | 0.00 | 96 | 1010.7 |
| 20260905104332 | 70 | 156 | 0.0 | 0.0 | 0.00 | 0.00 | 0.00 | 96 | 1010.4 |
| 20260905103313 | 70 | 156 | 0.0 | 0.9 | 0.00 | 0.00 | 0.00 | 96 | 1010.2 |
| 20260905102312 | 70 | 156 | 0.0 | 1.7 | 0.00 | 0.00 | 0.00 | 96 | 1010.2 |
| 20260905101336 | 70 | 156 | 0.0 | 0.9 | 0.00 | 0.00 | 0.00 | 95 | 1010.2 |
| 20260905100347 | 70 | 156 | 0.0 | 1.7 | 0.00 | 0.00 | 0.00 | 95 | 1010.2 |
| 20260905095332 | 70 | 156 | 0.9 | 1.7 | 0.00 | 0.00 | 0.00 | 95 | 1010.0 |
| 20260905094320 | 70 | 156 | 0.9 | 1.7 | 0.00 | 0.00 | 0.00 | 95 | 1010.1 |
| 20260905093328 | 70 | 156 | 0.0 | 0.0 | 0.00 | 0.00 | 0.00 | 95 | 1010.1 |
| 20260905092337 | 70 | 156 | 0.0 | 0.9 | 0.00 | 0.00 | 0.00 | 95 | 1010.0 |
| 20260905091316 | 70 | 156 | 0.0 | 1.7 | 0.00 | 0.00 | 0.00 | 95 | 1010.0 |
| 20260905090339 | 70 | 156 | 0.9 | 1.7 | 0.00 | 0.00 | 0.00 | 95 | 1010.0 |
| 20260905085316 | 69 | 156 | 0.0 | 0.9 | 0.00 | 0.00 | 0.00 | 95 | 1010.1 |
| 20260905084317 | 69 | 156 | 0.9 | 1.7 | 0.00 | 0.00 | 0.00 | 95 | 1010.0 |
| 20260905083343 | 69 | 156 | 0.0 | 0.9 | 0.00 | 0.00 | 0.00 | 95 | 1010.1 |
| 20260905082336 | 69 | 156 | 0.0 | 0.9 | 0.00 | 0.00 | 0.00 | 95 | 1010.0 |
| 20260905081340 | 70 | 156 | 0.9 | 1.7 | 0.00 | 0.00 | 0.00 | 95 | 1010.1 |
| 20260905080356 | 70 | 156 | 0.0 | 0.9 | 0.00 | 0.00 | 0.00 | 95 | 1010.1 |
| 20260905075316 | 70 | 156 | 0.9 | 1.7 | 0.00 | 0.00 | 0.00 | 95 | 1010.1 |
| 20260905074339 | 70 | 156 | 0.9 | 1.7 | 0.00 | 0.00 | 0.00 | 95 | 1010.2 |
| 20260905073319 | 70 | 156 | 0.0 | 1.7 | 0.00 | 0.00 | 0.00 | 95 | 1010.3 |
| 20260905072341 | 70 | 156 | 0.9 | 1.7 | 0.00 | 0.00 | 0.00 | 95 | 1010.3 |
| 20260905071338 | 70 | 156 | 0.0 | 1.7 | 0.00 | 0.00 | 0.00 | 95 | 1010.3 |
| 20260905070315 | 70 | 156 | 0.0 | 0.9 | 0.00 | 0.00 | 0.00 | 95 | 1010.5 |
| 20260905065341 | 70 | 156 | 0.9 | 1.7 | 0.00 | 0.01 | 0.00 | 95 | 1010.6 |
| 20260905064341 | 70 | 156 | 0.9 | 1.7 | 0.00 | 0.01 | 0.00 | 95 | 1010.8 |
| 20260905063320 | 70 | 156 | 0.0 | 0.9 | 0.00 | 0.01 | 0.00 | 95 | 1010.9 |
| 20260905062321 | 70 | 156 | 0.9 | 1.7 | 0.00 | 0.01 | 0.00 | 95 | 1011.0 |
| 20260905061322 | 70 | 156 | 0.9 | 1.7 | 0.00 | 0.01 | 0.00 | 95 | 1011.1 |
| 20260905060344 | 70 | 156 | 0.9 | 2.6 | 0.00 | 0.01 | 0.00 | 94 | 1011.2 |
| 20260905055338 | 70 | 156 | 0.0 | 0.9 | 0.00 | 0.01 | 0.00 | 94 | 1011.3 |
| 20260905054324 | 70 | 156 | 0.9 | 1.7 | 0.00 | 0.01 | 0.00 | 94 | 1011.4 |
| 20260905053317 | 70 | 156 | 0.9 | 1.7 | 0.00 | 0.01 | 0.00 | 94 | 1011.4 |
| 20260905052339 | 70 | 156 | 0.0 | 2.6 | 0.00 | 0.01 | 0.00 | 94 | 1011.7 |
| 20260905051337 | 71 | 154 | 1.7 | 2.6 | 0.00 | 0.01 | 0.00 | 94 | 1011.8 |
| 20260905050326 | 71 | 200 | 0.0 | 0.9 | 0.00 | 0.01 | 0.00 | 94 | 1011.9 |
| 20260905045337 | 71 | 200 | 0.9 | 1.7 | 0.00 | 0.01 | 0.00 | 94 | 1011.9 |
| 20260905044400 | 71 | 200 | 0.9 | 2.6 | 0.00 | 0.01 | 0.00 | 94 | 1011.8 |
| 20260905043402 | 72 | 163 | 1.7 | 2.6 | 0.00 | 0.01 | 0.00 | 94 | 1011.6 |
| 20260905042340 | 72 | 176 | 0.9 | 2.6 | 0.00 | 0.01 | 0.00 | 94 | 1011.7 |
| 20260905041347 | 72 | 202 | 0.9 | 1.7 | 0.00 | 0.01 | 0.00 | 94 | 1011.9 |
| 20260905040324 | 72 | 157 | 0.0 | 0.9 | 0.00 | 0.01 | 0.00 | 94 | 1011.9 |
| 20260905035316 | 72 | 157 | 0.0 | 0.0 | 0.00 | 0.11 | 0.01 | 94 | 1011.9 |
| 20260905034316 | 72 | 157 | 0.0 | 2.6 | 0.00 | 0.11 | 0.01 | 94 | 1011.9 |
| 20260905033317 | 72 | 194 | 1.7 | 3.5 | 0.00 | 0.11 | 0.01 | 94 | 1011.9 |
| 20260905032320 | 72 | 205 | 1.7 | 2.6 | 0.00 | 0.11 | 0.01 | 94 | 1011.8 |
| 20260905031337 | 72 | 184 | 0.9 | 2.6 | 0.00 | 0.11 | 0.01 | 94 | 1011.9 |
| 20260905030356 | 72 | 213 | 0.9 | 2.6 | 0.00 | 0.11 | 0.01 | 94 | 1011.7 |
| 20260905025338 | 73 | 199 | 1.7 | 3.5 | 0.00 | 0.13 | 0.01 | 94 | 1011.7 |
| 20260905024316 | 73 | 155 | 1.7 | 3.5 | 0.00 | 0.13 | 0.01 | 93 | 1011.6 |
| 20260905023337 | 73 | 169 | 0.9 | 2.6 | 0.00 | 0.13 | 0.01 | 93 | 1011.4 |
| 20260905022338 | 73 | 161 | 1.7 | 2.6 | 0.00 | 0.13 | 0.01 | 93 | 1011.4 |
| 20260905021358 | 73 | 140 | 0.9 | 2.6 | 0.00 | 0.13 | 0.01 | 93 | 1011.4 |
| 20260905020316 | 73 | 132 | 0.9 | 1.7 | 0.00 | 0.13 | 0.01 | 92 | 1011.3 |
| 20260905015322 | 73 | 207 | 0.0 | 0.9 | 0.00 | 0.18 | 0.01 | 92 | 1011.2 |
| 20260905014336 | 73 | 207 | 0.0 | 0.9 | 0.00 | 0.18 | 0.01 | 92 | 1011.1 |
| 20260905013315 | 74 | 207 | 0.0 | 0.0 | 0.00 | 0.18 | 0.01 | 92 | 1011.0 |
| 20260905012319 | 74 | 207 | 0.0 | 0.9 | 0.00 | 0.18 | 0.01 | 91 | 1011.0 |
| 20260905011327 | 74 | 207 | 0.0 | 1.7 | 0.00 | 0.18 | 0.01 | 91 | 1011.1 |
| 20260905010334 | 74 | 207 | 0.0 | 1.7 | 0.00 | 0.18 | 0.01 | 90 | 1011.1 |
| 20260905005337 | 75 | 207 | 0.0 | 1.7 | 0.00 | 0.18 | 0.01 | 90 | 1011.1 |
| 20260905004315 | 75 | 207 | 0.0 | 1.7 | 0.00 | 0.18 | 0.01 | 89 | 1011.0 |
| 20260905003316 | 76 | 207 | 0.0 | 0.9 | 0.00 | 0.18 | 0.01 | 89 | 1011.0 |
| 20260905002318 | 76 | 207 | 0.9 | 1.7 | 0.00 | 0.18 | 0.01 | 88 | 1010.8 |
| 20260905001315 | 77 | 207 | 0.9 | 4.3 | 0.00 | 0.18 | 0.01 | 88 | 1010.7 |
| 20260905000340 | 77 | 222 | 1.7 | 7.0 | 0.00 | 0.18 | 0.01 | 87 | 1010.7 |
| 20260904235344 | 78 | 196 | 1.7 | 4.3 | 0.00 | 0.18 | 0.01 | 87 | 1010.8 |
| 20260904234315 | 78 | 219 | 1.7 | 4.3 | 0.00 | 0.18 | 0.01 | 86 | 1010.7 |
| 20260904233339 | 79 | 191 | 2.6 | 6.1 | 0.00 | 0.18 | 0.01 | 85 | 1010.8 |
| 20260904232341 | 79 | 192 | 1.7 | 5.2 | 0.00 | 0.18 | 0.01 | 85 | 1010.8 |
| 20260904231315 | 80 | 190 | 2.6 | 5.2 | 0.00 | 0.18 | 0.01 | 84 | 1010.8 |
| 20260904230315 | 81 | 192 | 1.7 | 3.5 | 0.00 | 0.18 | 0.01 | 85 | 1010.7 |
| 20260904225340 | 81 | 190 | 0.9 | 2.6 | 0.00 | 0.18 | 0.01 | 84 | 1010.9 |
| 20260904224314 | 81 | 281 | 1.7 | 5.2 | 0.00 | 0.18 | 0.01 | 83 | 1011.0 |
| 20260904223352 | 82 | 259 | 1.7 | 5.2 | 0.00 | 0.18 | 0.01 | 81 | 1011.2 |
| 20260904222317 | 82 | 237 | 1.7 | 3.5 | 0.00 | 0.18 | 0.01 | 80 | 1011.3 |
| 20260904221315 | 82 | 229 | 1.7 | 3.5 | 0.00 | 0.18 | 0.01 | 80 | 1011.1 |
| 20260904220326 | 82 | 264 | 2.6 | 5.2 | 0.00 | 0.18 | 0.01 | 79 | 1011.1 |
| 20260904215320 | 83 | 217 | 1.7 | 3.5 | 0.00 | 0.18 | 0.01 | 79 | 1011.0 |
| 20260904214317 | 83 | 280 | 0.9 | 4.3 | 0.00 | 0.18 | 0.01 | 77 | 1011.1 |
| 20260904213326 | 84 | 243 | 2.6 | 4.3 | 0.00 | 0.18 | 0.01 | 76 | 1011.2 |
| 20260904212315 | 84 | 223 | 1.7 | 4.3 | 0.00 | 0.18 | 0.01 | 75 | 1011.1 |
| 20260904211340 | 84 | 140 | 1.7 | 3.5 | 0.00 | 0.18 | 0.01 | 75 | 1011.2 |
| 20260904210321 | 84 | 245 | 0.9 | 3.5 | 0.00 | 0.18 | 0.01 | 73 | 1011.3 |
| 20260904205337 | 85 | 241 | 1.7 | 4.3 | 0.00 | 0.18 | 0.01 | 73 | 1011.8 |
| 20260904204320 | 84 | 285 | 1.7 | 5.2 | 0.00 | 0.18 | 0.01 | 74 | 1011.8 |
| 20260904203358 | 84 | 273 | 0.9 | 2.6 | 0.00 | 0.18 | 0.01 | 72 | 1011.7 |
| 20260904202330 | 84 | 269 | 0.9 | 1.7 | 0.00 | 0.18 | 0.01 | 72 | 1011.5 |
| 20260904201316 | 84 | 252 | 0.9 | 1.7 | 0.00 | 0.18 | 0.01 | 72 | 1011.2 |
| 20260904200317 | 84 | 289 | 0.9 | 2.6 | 0.00 | 0.18 | 0.01 | 72 | 1011.3 |
| 20260904195323 | 84 | 291 | 0.9 | 3.5 | 0.00 | 0.18 | 0.01 | 72 | 1011.2 |
| 20260904194314 | 84 | 291 | 0.9 | 2.6 | 0.00 | 0.18 | 0.01 | 71 | 1011.5 |
| 20260904193355 | 84 | 327 | 2.6 | 3.5 | 0.00 | 0.18 | 0.01 | 71 | 1011.6 |
| 20260904192351 | 84 | 315 | 1.7 | 4.3 | 0.00 | 0.18 | 0.01 | 71 | 1011.8 |
| 20260904191324 | 84 | 329 | 2.6 | 5.2 | 0.00 | 0.18 | 0.01 | 68 | 1011.9 |
| 20260904190316 | 85 | 351 | 4.3 | 7.0 | 0.00 | 0.18 | 0.01 | 68 | 1012.1 |
| 20260904185328 | 85 | 316 | 3.5 | 7.8 | 0.00 | 0.18 | 0.01 | 66 | 1012.0 |
| 20260904184320 | 85 | 327 | 3.5 | 4.3 | 0.00 | 0.18 | 0.01 | 68 | 1011.6 |
| 20260904183332 | 86 | 296 | 1.7 | 9.6 | 0.00 | 0.18 | 0.01 | 65 | 1012.2 |
| 20260904182400 | 86 | 321 | 4.3 | 10.4 | 0.00 | 0.18 | 0.01 | 66 | 1012.6 |
| 20260904181317 | 86 | 305 | 3.5 | 7.8 | 0.00 | 0.18 | 0.01 | 70 | 1012.7 |
| 20260904180349 | 85 | 290 | 3.5 | 7.0 | 0.00 | 0.18 | 0.01 | 67 | 1012.8 |
| 20260904175354 | 85 | 339 | 4.3 | 8.7 | 0.00 | 0.18 | 0.01 | 71 | 1012.8 |
| 20260904174313 | 85 | 311 | 2.6 | 5.2 | 0.00 | 0.18 | 0.01 | 69 | 1012.9 |
| 20260904173335 | 85 | 278 | 3.5 | 6.1 | 0.00 | 0.18 | 0.01 | 69 | 1012.9 |
| 20260904172321 | 85 | 252 | 2.6 | 8.7 | 0.00 | 0.18 | 0.01 | 70 | 1013.0 |
| 20260904171317 | 83 | 349 | 3.5 | 7.0 | 0.00 | 0.18 | 0.01 | 72 | 1013.1 |
| 20260904170337 | 84 | 307 | 3.5 | 7.8 | 0.00 | 0.18 | 0.01 | 71 | 1013.3 |
| 20260904165320 | 83 | 290 | 1.7 | 5.2 | 0.00 | 0.18 | 0.01 | 73 | 1013.3 |
| 20260904164318 | 83 | 333 | 3.5 | 7.0 | 0.00 | 0.18 | 0.01 | 70 | 1013.4 |
| 20260904163337 | 83 | 290 | 1.7 | 7.8 | 0.00 | 0.18 | 0.01 | 70 | 1013.6 |
| 20260904162312 | 83 | 351 | 1.7 | 7.0 | 0.00 | 0.18 | 0.01 | 72 | 1013.6 |
| 20260904161349 | 83 | 301 | 3.5 | 7.0 | 0.00 | 0.18 | 0.01 | 71 | 1013.7 |
| 20260904160332 | 82 | 327 | 0.0 | 7.0 | 0.00 | 0.18 | 0.01 | 72 | 1013.7 |
| 20260904155334 | 81 | 299 | 4.3 | 7.0 | 0.00 | 0.18 | 0.01 | 73 | 1013.8 |
| 20260904154312 | 82 | 289 | 2.6 | 3.5 | 0.00 | 0.18 | 0.01 | 74 | 1013.8 |
| 20260904153336 | 81 | 271 | 0.9 | 4.3 | 0.00 | 0.18 | 0.01 | 76 | 1013.9 |
| 20260904152335 | 80 | 227 | 0.9 | 3.5 | 0.00 | 0.18 | 0.01 | 74 | 1014.0 |
| 20260904151316 | 80 | 292 | 1.7 | 5.2 | 0.00 | 0.18 | 0.01 | 75 | 1014.1 |
| 20260904150336 | 80 | 351 | 0.9 | 3.5 | 0.00 | 0.18 | 0.01 | 80 | 1013.9 |
| 20260904145316 | 78 | 64 | 2.6 | 5.2 | 0.00 | 0.36 | 0.01 | 79 | 1013.9 |
| 20260904144331 | 79 | 323 | 3.5 | 5.2 | 0.00 | 0.36 | 0.01 | 80 | 1014.0 |
| 20260904143312 | 78 | 320 | 0.9 | 3.5 | 0.00 | 0.36 | 0.01 | 85 | 1014.1 |
| 20260904142314 | 77 | 310 | 0.9 | 6.1 | 0.00 | 0.36 | 0.01 | 83 | 1014.0 |
| 20260904141315 | 77 | 236 | 2.6 | 6.1 | 0.00 | 0.36 | 0.01 | 84 | 1014.0 |
| 20260904140313 | 77 | 225 | 1.7 | 3.5 | 0.00 | 0.36 | 0.01 | 86 | 1014.1 |
| 20260904135332 | 77 | 165 | 0.9 | 3.5 | 0.00 | 0.36 | 0.01 | 88 | 1014.1 |
| 20260904134329 | 76 | 253 | 1.7 | 3.5 | 0.00 | 0.36 | 0.01 | 88 | 1014.0 |
| 20260904133330 | 75 | 218 | 1.7 | 4.3 | 0.00 | 0.36 | 0.01 | 92 | 1014.0 |
| 20260904132314 | 74 | 256 | 1.7 | 4.3 | 0.00 | 0.36 | 0.01 | 93 | 1014.1 |
| 20260904131318 | 73 | 191 | 1.7 | 3.5 | 0.00 | 0.36 | 0.01 | 95 | 1014.0 |
| 20260904130334 | 73 | 235 | 1.7 | 2.6 | 0.00 | 0.36 | 0.01 | 96 | 1014.1 |
| 20260904125331 | 71 | 159 | 0.9 | 2.6 | 0.00 | 0.38 | 0.01 | 96 | 1013.9 |
| 20260904124337 | 71 | 181 | 0.0 | 2.6 | 0.00 | 0.38 | 0.01 | 96 | 1013.7 |